Total_Precipitation_Accumulation
2.21 1.88 1.50 1.76 1.95 1.94 1.59 1.65 1.49 1.11 1.16 1.24 0.83 0.45 0.23 0.11 0.07 0.05 0.06 0.07 0.05 0.04 0.03 0.03 0.01 0.02 0.03 0.03 0.05 0.07 0.13 0.17 0.23 0.21 0.23 0.17 0.11 0.08 0.09 0.07 0.13 0.13 0.21 0.36 0.37 0.27 0.35 0.36 0.39 0.29 0.23 0.18 0.19 0.29 0.24 0.38 0.37 0.47 0.42 0.32 0.42 0.53 0.42 0.54 0.65 0.79 0.80 0.60 0.80 0.34 0.33 0.46 0.47 0.85 0.70 0.54 0.34 0.48 0.43 0.48 0.31 0.52 0.35 0.36 0.37
1.08 1.04 1.16 1.52 1.69 1.64 1.47 1.16 1.29 1.16 1.06 0.90 0.67 0.30 0.12 0.08 0.07 0.05 0.06 0.05 0.06 0.03 0.03 0.02 0.05 0.07 0.10 0.07 0.09 0.11 0.22 0.18 0.15 0.16 0.18 0.27 0.22 0.13 0.22 0.19 0.16 0.30 0.33 0.48 0.92 0.52 0.36 0.63 0.34 0.22 0.31 0.20 0.24 0.26 0.37 0.30 0.36 0.42 0.44 0.31 0.49 0.39 0.49 0.60 0.66 0.65 0.84 0.73 0.83 0.89 0.44 0.36 0.49 0.50 0.63 0.50 0.46 0.45 0.52 0.52 0.32 0.68 0.53 0.45 0.52
0.89 1.04 1.61 1.37 1.32 1.17 1.22 1.07 0.93 1.37 1.17 0.88 0.75 0.20 0.10 0.06 0.05 0.05 0.02 0.04 0.02 0.04 0.06 0.10 0.20 0.20 0.27 0.21 0.17 0.17 0.23 0.32 0.24 0.17 0.20 0.18 0.23 0.27 0.19 0.17 0.27 0.36 0.29 0.45 0.47 0.62 0.59 0.70 0.33 0.30 0.36 0.37 0.28 0.34 0.32 0.27 0.42 0.35 0.43 0.44 0.60 0.60 0.53 0.66 0.58 0.78 0.90 0.81 1.15 0.72 0.67 0.50 0.37 0.53 0.54 0.43 0.31 0.45 0.54 0.46 0.49 0.48 0.50 0.60 0.42
0.79 0.76 0.91 1.14 1.24 0.90 1.04 0.85 1.09 0.85 0.76 0.57 0.57 0.19 0.07 0.07 0.07 0.06 0.07 0.06 0.10 0.09 0.25 0.27 0.18 0.22 0.18 0.12 0.15 0.24 0.34 0.25 0.22 0.22 0.24 0.30 0.18 0.24 0.23 0.32 0.28 0.41 0.47 0.52 0.74 0.70 0.68 0.49 0.45 0.45 0.35 0.58 0.48 0.40 0.31 0.36 0.45 0.42 0.30 0.51 0.46 0.63 0.43 0.40 0.66 0.75 0.93 0.99 0.61 0.48 0.56 0.40 0.44 0.59 0.47 0.60 0.51 0.51 0.59 0.61 0.66 0.58 0.57 0.54 0.61
0.44 0.56 0.73 1.03 1.29 0.74 0.69 0.87 0.96 0.50 0.47 0.48 0.46 0.18 0.07 0.08 0.12 0.13 0.13 0.10 0.10 0.14 0.26 0.26 0.33 0.16 0.13 0.15 0.22 0.37 0.51 0.71 0.54 0.32 0.23 0.37 0.43 0.26 0.30 0.43 0.45 0.38 0.44 0.64 0.75 0.93 0.66 0.57 0.55 0.53 0.54 0.54 0.48 0.50 0.44 0.52 0.46 0.39 0.45 0.47 0.34 0.38 0.36 0.41 0.67 0.74 0.79 0.67 0.76 0.84 0.52 0.32 0.32 0.60 0.67 0.62 0.58 0.58 0.62 0.84 0.68 0.61 0.79 0.58 0.62
0.38 0.42 0.56 0.73 0.76 0.97 0.70 0.58 0.66 0.66 0.30 0.46 0.50 0.12 0.08 0.06 0.06 0.07 0.09 0.07 0.12 0.16 0.25 0.27 0.38 0.22 0.28 0.41 0.35 0.56 0.42 0.59 0.56 0.38 0.59 0.53 0.47 0.47 0.54 0.55 0.81 0.76 0.55 0.76 0.74 0.79 0.76 0.61 0.68 0.70 0.70 0.56 0.61 0.48 0.62 0.49 0.50 0.45 0.32 0.39 0.31 0.25 0.32 0.34 0.41 0.49 0.48 0.63 1.07 1.22 0.47 0.53 0.31 0.42 0.74 0.62 0.64 0.76 0.75 0.84 0.71 0.70 0.53 0.59 0.53
0.21 0.39 0.50 0.59 0.67 0.83 0.39 0.44 0.55 0.36 0.14 0.17 0.13 0.12 0.10 0.12 0.06 0.06 0.09 0.12 0.15 0.21 0.31 0.45 0.40 0.35 0.55 0.44 0.47 0.50 0.62 0.71 0.67 0.77 0.65 0.68 0.52 0.67 0.58 0.68 0.79 0.58 0.52 0.94 0.67 0.66 0.81 0.76 0.79 0.85 0.68 0.66 0.63 0.53 0.43 0.37 0.40 0.37 0.34 0.33 0.33 0.21 0.28 0.16 0.31 0.15 0.36 0.81 1.01 1.37 0.88 0.49 0.31 0.35 0.65 0.72 0.78 0.83 0.57 0.52 0.64 0.67 0.47 0.42 0.40
0.23 0.33 0.49 0.65 0.43 0.30 0.19 0.24 0.34 0.17 0.14 0.20 0.15 0.12 0.09 0.09 0.07 0.08 0.08 0.14 0.10 0.17 0.28 0.40 0.56 0.59 0.55 0.40 0.49 0.66 0.68 0.58 0.61 0.66 0.71 0.83 0.54 0.57 0.60 0.73 0.91 0.67 0.71 0.75 0.56 0.67 0.44 0.61 0.86 0.95 0.69 0.63 0.47 0.63 0.39 0.41 0.36 0.43 0.27 0.33 0.43 0.38 0.25 0.28 0.24 0.12 0.15 0.47 0.97 0.77 0.90 0.87 0.28 0.28 0.47 0.50 0.50 0.56 0.61 0.66 0.66 0.57 0.77 0.61 0.52
0.20 0.34 0.43 0.42 0.33 0.19 0.22 0.24 0.16 0.14 0.10 0.16 0.09 0.07 0.10 0.07 0.06 0.07 0.06 0.13 0.12 0.26 0.45 0.40 0.34 0.48 0.67 0.77 0.72 0.62 0.68 0.74 0.73 0.64 0.44 0.51 0.58 0.54 0.61 0.79 0.49 0.63 0.72 0.59 0.68 0.59 0.57 0.58 0.63 0.65 0.61 0.57 0.48 0.46 0.38 0.41 0.56 0.51 0.38 0.35 0.37 0.30 0.22 0.24 0.11 0.28 0.50 0.43 0.31 0.48 0.64 0.65 0.22 0.39 0.48 0.49 0.44 0.46 0.45 0.40 0.45 0.57 0.48 0.48 0.32
0.17 0.19 0.23 0.18 0.32 0.21 0.21 0.13 0.09 0.10 0.05 0.05 0.06 0.07 0.09 0.12 0.14 0.13 0.15 0.10 0.37 0.41 0.47 0.38 0.40 0.38 0.67 0.73 0.53 0.65 0.64 0.64 0.55 0.64 0.58 0.72 0.59 0.66 0.72 0.65 0.66 0.73 0.67 0.73 0.66 0.66 0.61 0.63 0.63 0.52 0.58 0.48 0.80 0.60 0.57 0.54 0.47 0.34 0.48 0.68 0.38 0.25 0.29 0.26 0.19 0.19 0.53 0.42 0.35 0.37 0.47 0.52 0.31 0.48 0.28 0.44 0.30 0.46 0.78 0.48 0.53 0.42 0.33 0.32 0.34
0.19 0.21 0.18 0.23 0.27 0.12 0.12 0.16 0.09 0.08 0.07 0.09 0.11 0.14 0.18 0.15 0.13 0.13 0.15 0.28 0.33 0.41 0.47 0.46 0.73 0.81 0.73 0.65 0.87 0.50 0.64 0.65 0.81 0.70 0.77 0.71 0.67 0.67 0.76 0.73 0.56 0.62 0.76 0.63 0.76 0.51 0.53 0.52 0.55 0.51 0.56 0.67 0.84 0.89 0.79 0.90 0.62 0.45 0.51 0.51 0.38 0.30 0.33 0.28 0.30 0.27 0.40 0.43 0.39 0.53 0.49 0.37 0.35 0.50 0.34 0.22 0.31 0.23 0.39 0.51 0.57 0.51 0.35 0.17 0.14
0.22 0.17 0.19 0.18 0.28 0.10 0.09 0.10 0.06 0.06 0.06 0.08 0.08 0.11 0.13 0.13 0.24 0.27 0.39 0.40 0.45 0.54 0.42 0.44 0.69 0.79 0.72 0.76 0.69 0.63 0.64 0.66 0.88 0.87 0.81 0.67 0.76 0.57 0.93 0.63 0.72 0.64 0.61 0.73 0.96 0.43 0.47 0.72 0.68 0.56 0.64 0.80 0.99 0.76 0.85 0.77 0.72 0.56 0.48 0.42 0.20 0.14 0.17 0.25 0.34 0.37 0.40 0.34 0.36 0.43 0.30 0.37 0.37 0.22 0.32 0.35 0.25 0.22 0.37 0.43 0.42 0.20 0.11 0.18 0.13
0.16 0.18 0.18 0.14 0.18 0.11 0.09 0.11 0.06 0.07 0.06 0.11 0.16 0.14 0.12 0.17 0.20 0.15 0.42 0.42 0.42 0.40 0.52 0.55 0.63 0.43 0.63 0.70 0.59 0.51 0.56 0.74 0.76 0.82 0.77 0.60 0.75 0.89 0.70 0.67 0.53 0.47 0.67 0.63 0.76 0.60 0.62 0.58 0.59 0.62 0.72 0.68 0.66 0.86 0.91 0.85 0.63 0.40 0.39 0.31 0.20 0.15 0.15 0.19 0.27 0.23 0.35 0.52 0.73 0.40 0.39 0.47 0.60 0.15 0.18 0.28 0.29 0.15 0.14 0.23 0.17 0.08 0.11 0.10 0.09
0.13 0.17 0.15 0.08 0.07 0.20 0.10 0.09 0.06 0.08 0.10 0.19 0.12 0.13 0.23 0.28 0.24 0.37 0.41 0.48 0.51 0.65 0.57 0.58 0.44 0.51 0.48 0.46 0.64 0.54 0.85 0.84 0.71 0.76 0.71 0.51 0.64 0.87 0.70 0.51 0.53 0.54 0.57 0.54 0.49 0.53 0.75 0.49 0.64 0.65 0.59 0.64 0.45 0.68 0.81 0.69 0.50 0.50 0.47 0.32 0.23 0.15 0.23 0.16 0.14 0.24 0.54 0.76 0.20 0.40 0.32 0.35 0.58 0.05 0.18 0.19 0.18 0.20 0.18 0.17 0.12 0.09 0.06 0.06 0.07
0.13 0.23 0.13 0.10 0.17 0.14 0.22 0.11 0.12 0.10 0.13 0.10 0.21 0.24 0.26 0.32 0.41 0.39 0.46 0.34 0.54 1.01 0.72 0.45 0.51 0.49 0.53 0.42 0.63 0.46 0.63 0.50 0.59 0.64 0.59 0.52 0.54 0.68 0.55 0.57 0.45 0.46 0.48 0.42 0.41 0.48 0.39 0.45 0.68 0.70 0.43 0.56 0.71 0.58 0.66 0.58 0.52 0.47 0.33 0.23 0.26 0.13 0.09 0.28 0.22 0.21 0.22 0.30 0.16 0.20 0.37 0.29 0.06 0.07 0.29 0.17 0.14 0.14 0.20 0.14 0.10 0.08 0.05 0.03 0.03
0.12 0.11 0.10 0.14 0.08 0.15 0.21 0.39 0.16 0.19 0.18 0.16 0.17 0.23 0.29 0.50 0.36 0.35 0.27 0.45 0.49 0.54 0.55 0.52 0.43 0.34 0.44 0.46 0.56 0.51 0.71 0.57 0.63 0.56 0.66 0.58 0.62 0.61 0.43 0.50 0.45 0.44 0.32 0.47 0.40 0.41 0.52 0.58 0.65 0.57 0.47 0.55 0.71 0.60 0.62 0.59 0.50 0.33 0.30 0.20 0.26 0.13 0.09 0.07 0.17 0.34 0.26 0.15 0.26 0.25 0.22 0.50 0.09 0.07 0.21 0.18 0.11 0.12 0.15 0.09 0.08 0.08 0.11 0.10 0.03
0.10 0.06 0.07 0.06 0.09 0.11 0.12 0.26 0.27 0.22 0.16 0.14 0.27 0.22 0.23 0.30 0.35 0.27 0.26 0.27 0.35 0.52 0.52 0.43 0.37 0.26 0.49 0.43 0.56 0.64 0.52 0.65 0.46 0.50 0.56 0.47 0.44 0.67 0.57 0.54 0.47 0.35 0.37 0.44 0.41 0.47 0.54 0.59 0.56 0.63 0.45 0.54 0.57 0.62 0.65 0.50 0.39 0.24 0.27 0.17 0.21 0.12 0.13 0.05 0.37 0.33 0.15 0.15 0.08 0.27 0.31 0.31 0.07 0.09 0.18 0.09 0.06 0.12 0.15 0.07 0.06 0.06 0.10 0.07 0.06
0.07 0.07 0.07 0.10 0.13 0.13 0.26 0.19 0.17 0.25 0.59 0.29 0.27 0.30 0.29 0.24 0.20 0.21 0.21 0.27 0.32 0.35 0.33 0.29 0.27 0.39 0.38 0.37 0.57 0.58 0.74 0.53 0.69 0.61 0.48 0.56 0.66 0.50 0.50 0.49 0.29 0.26 0.23 0.34 0.47 0.58 0.55 0.52 0.47 0.40 0.39 0.49 0.57 0.67 0.56 0.35 0.33 0.37 0.27 0.20 0.21 0.15 0.13 0.10 0.13 0.10 0.24 0.20 0.13 0.15 0.21 0.11 0.04 0.10 0.11 0.14 0.12 0.13 0.07 0.05 0.08 0.08 0.06 0.07 0.04
0.11 0.08 0.09 0.10 0.11 0.09 0.13 0.17 0.16 0.20 0.29 0.20 0.46 0.18 0.28 0.15 0.22 0.27 0.32 0.36 0.35 0.39 0.29 0.23 0.27 0.38 0.39 0.52 0.86 0.54 0.53 0.47 0.63 0.50 0.46 0.53 0.45 0.31 0.45 0.31 0.30 0.33 0.23 0.40 0.66 0.59 0.56 0.42 0.39 0.21 0.32 0.43 0.33 0.40 0.46 0.37 0.25 0.29 0.22 0.16 0.20 0.13 0.16 0.18 0.19 0.12 0.17 0.17 0.15 0.21 0.15 0.03 0.05 0.06 0.12 0.15 0.09 0.08 0.10 0.10 0.09 0.09 0.06 0.11 0.08
0.10 0.10 0.14 0.10 0.09 0.09 0.13 0.19 0.19 0.15 0.17 0.22 0.37 0.39 0.37 0.28 0.41 0.19 0.23 0.29 0.37 0.33 0.29 0.32 0.35 0.42 0.37 0.58 0.75 0.91 0.75 0.77 0.69 0.61 0.47 0.51 0.42 0.38 0.42 0.34 0.20 0.31 0.32 0.35 0.39 0.44 0.38 0.30 0.24 0.23 0.27 0.44 0.27 0.29 0.46 0.34 0.27 0.25 0.23 0.16 0.18 0.13 0.38 0.29 0.16 0.22 0.12 0.07 0.12 0.16 0.01 0.02 0.02 0.03 0.07 0.10 0.12 0.13 0.08 0.12 0.10 0.11 0.12 0.13 0.10
0.17 0.14 0.14 0.10 0.12 0.14 0.10 0.14 0.14 0.13 0.13 0.26 0.20 0.20 0.22 0.30 0.33 0.43 0.37 0.26 0.27 0.27 0.24 0.31 0.33 0.41 0.55 0.55 0.57 0.66 0.48 0.60 0.58 0.57 0.56 0.44 0.40 0.42 0.34 0.19 0.20 0.34 0.19 0.41 0.42 0.28 0.18 0.25 0.31 0.18 0.22 0.25 0.17 0.25 0.25 0.27 0.31 0.21 0.15 0.21 0.10 0.37 0.15 0.29 0.08 0.12 0.19 0.11 0.09 0.14 0.00 0.01 0.02 0.02 0.05 0.08 0.12 0.13 0.10 0.08 0.15 0.13 0.12 0.11 0.15
0.17 0.18 0.14 0.12 0.13 0.12 0.15 0.13 0.18 0.27 0.15 0.16 0.24 0.22 0.30 0.28 0.23 0.26 0.24 0.27 0.33 0.36 0.31 0.25 0.51 0.34 0.46 0.44 0.62 0.47 0.43 0.84 0.56 0.44 0.54 0.40 0.51 0.34 0.26 0.26 0.29 0.24 0.29 0.35 0.36 0.15 0.14 0.25 0.20 0.16 0.23 0.17 0.07 0.35 0.28 0.12 0.16 0.15 0.15 0.11 0.29 0.27 0.25 0.17 0.17 0.07 0.14 0.11 0.16 0.06 0.00 0.00 0.01 0.04 0.06 0.05 0.07 0.09 0.13 0.08 0.08 0.12 0.17 0.13 0.12
0.22 0.15 0.15 0.08 0.10 0.11 0.11 0.12 0.18 0.11 0.19 0.24 0.14 0.12 0.19 0.23 0.30 0.24 0.28 0.33 0.42 0.24 0.35 0.21 0.35 0.30 0.44 0.32 0.52 0.53 0.42 0.45 0.53 0.39 0.43 0.36 0.22 0.24 0.18 0.19 0.17 0.20 0.22 0.22 0.10 0.08 0.16 0.17 0.10 0.17 0.15 0.07 0.30 0.20 0.17 0.22 0.18 0.11 0.06 0.15 0.15 0.10 0.04 0.11 0.11 0.11 0.13 0.13 0.17 0.00 0.00 0.00 0.01 0.05 0.07 0.04 0.08 0.10 0.09 0.05 0.05 0.08 0.10 0.12 0.10
0.08 0.08 0.09 0.08 0.15 0.11 0.10 0.06 0.11 0.11 0.22 0.32 0.25 0.20 0.18 0.19 0.24 0.36 0.25 0.21 0.18 0.28 0.24 0.15 0.32 0.33 0.30 0.61 0.50 0.33 0.33 0.64 0.35 0.29 0.26 0.24 0.36 0.19 0.15 0.18 0.11 0.10 0.08 0.17 0.09 0.09 0.08 0.09 0.05 0.07 0.12 0.27 0.33 0.26 0.14 0.13 0.10 0.17 0.20 0.06 0.04 0.06 0.04 0.06 0.08 0.07 0.09 0.22 0.08 0.00 0.01 0.01 0.01 0.04 0.08 0.09 0.08 0.03 0.06 0.04 0.03 0.06 0.09 0.13 0.13
0.07 0.07 0.07 0.07 0.07 0.06 0.09 0.10 0.13 0.13 0.15 0.18 0.11 0.15 0.29 0.29 0.23 0.21 0.17 0.27 0.14 0.13 0.17 0.14 0.24 0.27 0.32 0.60 0.32 0.23 0.32 0.35 0.23 0.44 0.49 0.40 0.57 0.41 0.50 0.56 0.52 0.54 0.28 0.44 0.45 0.45 0.54 0.38 0.30 0.27 0.19 0.18 0.08 0.17 0.12 0.08 0.09 0.09 0.04 0.04 0.01 0.02 0.04 0.02 0.03 0.02 0.02 0.14 0.09 0.00 0.00 0.00 0.01 0.02 0.14 0.13 0.10 0.07 0.08 0.04 0.06 0.08 0.12 0.10 0.08
0.05 0.08 0.05 0.08 0.05 0.05 0.08 0.06 0.11 0.10 0.11 0.27 0.13 0.11 0.24 0.18 0.12 0.26 0.21 0.14 0.12 0.12 0.08 0.13 0.20 0.37 0.37 0.16 0.14 0.15 0.21 0.22 0.30 0.28 0.43 0.45 0.64 0.68 0.45 0.49 0.28 0.56 0.52 0.71 0.35 0.36 0.69 0.21 0.23 0.30 0.20 0.14 0.17 0.09 0.06 0.06 0.05 0.06 0.05 0.01 0.01 0.01 0.01 0.01 0.04 0.03 0.01 0.04 0.04 0.00 0.02 0.00 0.04 0.06 0.11 0.14 0.10 0.09 0.11 0.04 0.06 0.09 0.09 0.11 0.05
0.07 0.06 0.03 0.05 0.06 0.08 0.07 0.06 0.09 0.10 0.11 0.19 0.15 0.22 0.34 0.12 0.22 0.14 0.11 0.11 0.21 0.08 0.10 0.12 0.32 0.18 0.16 0.26 0.12 0.09 0.07 0.16 0.16 0.19 0.38 0.76 1.01 0.54 0.70 0.82 0.89 0.83 0.44 0.57 0.21 0.36 0.44 0.20 0.13 0.25 0.13 0.16 0.08 0.05 0.04 0.08 0.04 0.02 0.03 0.01 0.01 0.01 0.01 0.01 0.00 0.02 0.07 0.02 0.01 0.00 0.03 0.03 0.03 0.04 0.07 0.11 0.14 0.09 0.09 0.10 0.08 0.08 0.07 0.07 0.06
0.02 0.04 0.05 0.04 0.04 0.06 0.06 0.11 0.08 0.09 0.11 0.15 0.11 0.17 0.21 0.12 0.07 0.08 0.10 0.09 0.08 0.11 0.05 0.08 0.06 0.10 0.12 0.06 0.03 0.10 0.13 0.02 0.09 0.13 0.10 0.52 0.51 0.45 0.14 0.57 0.56 0.23 0.19 0.16 0.32 0.42 0.21 0.25 0.38 0.20 0.20 0.12 0.05 0.03 0.12 0.03 0.02 0.01 0.06 0.04 0.02 0.01 0.01 0.01 0.01 0.02 0.05 0.01 0.04 0.03 0.00 0.01 0.03 0.07 0.10 0.12 0.15 0.19 0.08 0.11 0.09 0.09 0.09 0.07 0.09
0.03 0.03 0.03 0.05 0.02 0.03 0.08 0.13 0.09 0.07 0.11 0.09 0.09 0.15 0.11 0.06 0.06 0.08 0.09 0.06 0.05 0.06 0.03 0.04 0.19 0.10 0.09 0.06 0.03 0.03 0.03 0.08 0.05 0.06 0.26 0.41 0.30 0.62 0.70 0.42 0.27 0.26 0.13 0.26 0.09 0.19 0.22 0.25 0.31 0.37 0.11 0.26 0.05 0.12 0.03 0.06 0.01 0.03 0.02 0.03 0.01 0.02 0.00 0.01 0.01 0.01 0.02 0.04 0.06 0.10 0.02 0.01 0.06 0.08 0.08 0.12 0.17 0.16 0.12 0.15 0.10 0.08 0.09 0.04 0.05
0.01 0.01 0.02 0.02 0.02 0.02 0.03 0.06 0.04 0.16 0.06 0.09 0.07 0.06 0.06 0.13 0.04 0.05 0.06 0.06 0.03 0.06 0.04 0.07 0.03 0.09 0.06 0.07 0.06 0.03 0.14 0.14 0.15 0.15 0.21 0.22 0.30 0.07 0.20 0.32 0.27 0.34 0.29 0.14 0.16 0.17 0.21 0.18 0.11 0.22 0.15 0.09 0.06 0.29 0.05 0.03 0.05 0.01 0.01 0.01 0.01 0.02 0.00 0.00 0.01 0.00 0.01 0.03 0.04 0.04 0.01 0.03 0.03 0.08 0.11 0.13 0.08 0.16 0.12 0.12 0.23 0.22 0.09 0.15 0.12
0.02 0.01 0.01 0.02 0.02 0.02 0.03 0.04 0.05 0.06 0.07 0.07 0.04 0.06 0.05 0.05 0.03 0.04 0.05 0.09 0.05 0.06 0.05 0.04 0.04 0.04 0.06 0.15 0.14 0.06 0.11 0.10 0.16 0.10 0.08 0.07 0.09 0.11 0.17 0.26 0.30 0.38 0.21 0.17 0.12 0.17 0.14 0.09 0.12 0.19 0.15 0.08 0.26 0.05 0.02 0.02 0.01 0.02 0.01 0.01 0.01 0.01 0.01 0.01 0.02 0.01 0.02 0.01 0.04 0.05 0.08 0.07 0.05 0.10 0.11 0.10 0.07 0.08 0.20 0.19 0.23 0.25 0.16 0.11 0.17
0.01 0.01 0.01 0.01 0.01 0.01 0.01 0.02 0.05 0.05 0.03 0.03 0.04 0.06 0.04 0.03 0.03 0.03 0.03 0.04 0.02 0.02 0.02 0.03 0.03 0.01 0.03 0.09 0.09 0.07 0.11 0.18 0.14 0.16 0.18 0.23 0.21 0.14 0.25 0.18 0.22 0.12 0.12 0.17 0.18 0.19 0.15 0.22 0.08 0.04 0.16 0.17 0.18 0.05 0.03 0.07 0.01 0.02 0.02 0.01 0.00 0.01 0.01 0.01 0.01 0.00 0.00 0.00 0.00 0.05 0.04 0.13 0.13 0.09 0.13 0.10 0.13 0.14 0.16 0.16 0.24 0.36 0.34 0.35 0.40
0.00 0.00 0.00 0.00 0.01 0.01 0.02 0.02 0.02 0.03 0.03 0.03 0.04 0.02 0.07 0.02 0.05 0.02 0.02 0.02 0.02 0.03 0.06 0.01 0.01 0.01 0.04 0.03 0.16 0.11 0.37 0.21 0.15 0.06 0.05 0.14 0.19 0.22 0.11 0.08 0.17 0.26 0.07 0.10 0.13 0.13 0.17 0.24 0.33 0.09 0.13 0.12 0.06 0.02 0.02 0.04 0.02 0.01 0.01 0.01 0.00 0.00 0.00 0.00 0.00 0.01 0.00 0.01 0.00 0.02 0.05 0.10 0.15 0.17 0.10 0.08 0.25 0.20 0.19 0.16 0.21 0.25 0.11 0.16 0.08
0.00 0.01 0.01 0.00 0.01 0.01 0.01 0.02 0.02 0.02 0.02 0.03 0.02 0.03 0.03 0.01 0.03 0.02 0.02 0.02 0.02 0.04 0.01 0.00 0.01 0.01 0.03 0.10 0.06 0.10 0.16 0.27 0.09 0.08 0.08 0.09 0.09 0.15 0.10 0.10 0.10 0.09 0.08 0.13 0.27 0.19 0.19 0.13 0.12 0.10 0.10 0.09 0.04 0.03 0.04 0.03 0.01 0.01 0.01 0.00 0.01 0.00 0.00 0.01 0.00 0.00 0.01 0.01 0.03 0.02 0.02 0.08 0.09 0.15 0.12 0.04 0.07 0.07 0.14 0.16 0.18 0.24 0.19 0.18 0.15
0.00 0.00 0.00 0.00 0.01 0.00 0.00 0.01 0.01 0.02 0.02 0.02 0.02 0.02 0.01 0.01 0.00 0.01 0.01 0.03 0.02 0.01 0.00 0.01 0.06 0.06 0.02 0.08 0.09 0.09 0.10 0.11 0.09 0.11 0.08 0.14 0.15 0.06 0.11 0.09 0.07 0.12 0.15 0.09 0.21 0.15 0.16 0.19 0.07 0.09 0.06 0.04 0.04 0.03 0.01 0.02 0.01 0.01 0.00 0.00 0.00 0.00 0.00 0.00 0.00 0.00 0.00 0.01 0.01 0.01 0.02 0.04 0.09 0.06 0.19 0.20 0.04 0.11 0.09 0.12 0.17 0.14 0.20 0.17 0.20
0.00 0.00 0.00 0.00 0.01 0.00 0.00 0.00 0.00 0.02 0.02 0.01 0.01 0.01 0.01 0.02 0.01 0.00 0.01 0.03 0.02 0.03 0.02 0.01 0.03 0.05 0.08 0.06 0.08 0.13 0.10 0.16 0.12 0.12 0.10 0.10 0.13 0.33 0.15 0.21 0.10 0.15 0.23 0.17 0.14 0.21 0.29 0.22 0.12 0.16 0.05 0.04 0.02 0.03 0.01 0.01 0.01 0.01 0.01 0.00 0.00 0.00 0.00 0.00 0.01 0.00 0.01 0.02 0.04 0.02 0.01 0.01 0.04 0.06 0.07 0.09 0.16 0.10 0.05 0.13 0.15 0.27 0.12 0.14 0.16
0.00 0.00 0.00 0.00 0.00 0.00 0.00 0.01 0.01 0.01 0.01 0.01 0.00 0.00 0.01 0.01 0.01 0.01 0.01 0.01 0.03 0.02 0.08 0.04 0.03 0.04 0.06 0.04 0.07 0.07 0.07 0.06 0.10 0.11 0.10 0.13 0.09 0.09 0.15 0.15 0.14 0.16 0.10 0.21 0.26 0.10 0.40 0.12 0.10 0.07 0.03 0.04 0.02 0.03 0.02 0.00 0.01 0.01 0.00 0.00 0.00 0.00 0.00 0.03 0.00 0.00 0.00 0.01 0.04 0.10 0.04 0.05 0.02 0.02 0.06 0.05 0.08 0.20 0.02 0.08 0.08 0.08 0.07 0.16 0.14
0.00 0.00 0.00 0.00 0.00 0.00 0.00 0.00 0.01 0.01 0.01 0.01 0.00 0.01 0.01 0.01 0.01 0.02 0.01 0.03 0.02 0.02 0.02 0.03 0.02 0.03 0.06 0.03 0.04 0.05 0.05 0.09 0.14 0.14 0.14 0.08 0.14 0.13 0.26 0.26 0.21 0.17 0.19 0.12 0.41 0.18 0.09 0.12 0.21 0.09 0.04 0.05 0.03 0.03 0.02 0.02 0.01 0.01 0.01 0.00 0.00 0.00 0.00 0.00 0.00 0.01 0.01 0.01 0.03 0.02 0.05 0.04 0.06 0.02 0.08 0.06 0.08 0.04 0.14 0.04 0.04 0.05 0.03 0.06 0.09
0.00 0.00 0.00 0.00 0.00 0.00 0.00 0.00 0.00 0.01 0.01 0.00 0.01 0.01 0.01 0.01 0.01 0.01 0.01 0.03 0.02 0.02 0.01 0.01 0.02 0.01 0.02 0.02 0.03 0.06 0.08 0.11 0.14 0.10 0.07 0.14 0.08 0.11 0.11 0.14 0.08 0.21 0.17 0.20 0.26 0.24 0.21 0.09 0.08 0.10 0.03 0.05 0.03 0.01 0.00 0.00 0.00 0.01 0.00 0.00 0.00 0.00 0.00 0.00 0.00 0.01 0.01 0.03 0.01 0.01 0.03 0.03 0.01 0.01 0.01 0.02 0.05 0.05 0.09 0.16 0.20 0.17 0.12 0.05 0.09
0.00 0.00 0.00 0.00 0.00 0.00 0.00 0.00 0.00 0.00 0.01 0.00 0.01 0.03 0.03 0.01 0.01 0.01 0.02 0.01 0.01 0.02 0.02 0.01 0.03 0.03 0.01 0.01 0.02 0.07 0.03 0.11 0.07 0.09 0.16 0.18 0.31 0.07 0.24 0.18 0.15 0.16 0.42 0.21 0.27 0.30 0.18 0.26 0.08 0.12 0.09 0.04 0.02 0.01 0.00 0.00 0.00 0.00 0.00 0.00 0.00 0.00 0.00 0.00 0.00 0.01 0.01 0.03 0.02 0.03 0.02 0.01 0.00 0.00 0.00 0.00 0.01 0.06 0.04 0.06 0.09 0.14 0.13 0.13 0.08
0.00 0.00 0.00 0.00 0.00 0.00 0.00 0.00 0.00 0.00 0.01 0.01 0.05 0.02 0.01 0.01 0.00 0.02 0.02 0.02 0.03 0.02 0.03 0.02 0.01 0.02 0.00 0.01 0.01 0.05 0.04 0.03 0.05 0.10 0.05 0.10 0.13 0.16 0.18 0.17 0.15 0.24 0.24 0.30 0.17 0.28 0.14 0.18 0.11 0.06 0.07 0.03 0.02 0.00 0.00 0.00 0.00 0.00 0.00 0.00 0.00 0.00 0.00 0.00 0.00 0.01 0.00 0.02 0.00 0.01 0.00 0.00 0.00 0.00 0.00 0.00 0.00 0.02 0.04 0.04 0.04 0.09 0.11 0.14 0.12
0.00 0.00 0.00 0.00 0.00 0.00 0.00 0.00 0.00 0.00 0.00 0.00 0.02 0.02 0.01 0.01 0.01 0.00 0.00 0.03 0.02 0.01 0.03 0.02 0.06 0.03 0.01 0.01 0.02 0.02 0.01 0.03 0.05 0.08 0.11 0.09 0.12 0.12 0.17 0.23 0.17 0.21 0.19 0.29 0.21 0.19 0.08 0.15 0.11 0.10 0.05 0.06 0.02 0.01 0.00 0.00 0.00 0.02 0.02 0.02 0.00 0.00 0.00 0.00 0.00 0.00 0.00 0.03 0.01 0.01 0.02 0.00 0.00 0.00 0.00 0.00 0.00 0.00 0.00 0.00 0.01 0.04 0.08 0.13 0.15
0.00 0.00 0.00 0.00 0.00 0.00 0.00 0.00 0.00 0.00 0.00 0.00 0.00 0.01 0.00 0.00 0.01 0.01 0.00 0.02 0.00 0.02 0.03 0.02 0.02 0.02 0.02 0.00 0.02 0.07 0.01 0.02 0.03 0.04 0.03 0.10 0.13 0.19 0.17 0.25 0.11 0.16 0.14 0.09 0.09 0.13 0.20 0.13 0.07 0.12 0.04 0.02 0.02 0.00 0.00 0.00 0.02 0.00 0.00 0.01 0.04 0.06 0.03 0.00 0.01 0.00 0.01 0.00 0.01 0.01 0.01 0.01 0.00 0.00 0.00 0.00 0.00 0.01 0.00 0.00 0.00 0.00 0.00 0.01 0.03
0.00 0.00 0.00 0.00 0.00 0.00 0.00 0.00 0.00 0.00 0.00 0.00 0.00 0.00 0.00 0.00 0.00 0.01 0.00 0.01 0.03 0.01 0.01 0.01 0.02 0.06 0.02 0.02 0.01 0.02 0.04 0.05 0.07 0.08 0.14 0.13 0.08 0.12 0.10 0.12 0.09 0.13 0.16 0.23 0.13 0.13 0.10 0.15 0.10 0.05 0.03 0.08 0.06 0.01 0.00 0.00 0.00 0.00 0.04 0.08 0.06 0.04 0.09 0.06 0.02 0.01 0.01 0.01 0.00 0.02 0.00 0.01 0.00 0.00 0.00 0.00 0.01 0.00 0.00 0.00 0.00 0.00 0.00 0.00 0.00
0.00 0.00 0.00 0.00 0.00 0.00 0.00 0.00 0.00 0.00 0.00 0.00 0.00 0.00 0.03 0.02 0.02 0.01 0.01 0.01 0.00 0.01 0.02 0.02 0.03 0.03 0.01 0.02 0.02 0.04 0.03 0.05 0.04 0.06 0.06 0.06 0.08 0.12 0.08 0.09 0.08 0.05 0.07 0.09 0.14 0.11 0.08 0.09 0.06 0.08 0.03 0.07 0.05 0.02 0.01 0.00 0.00 0.00 0.03 0.02 0.04 0.05 0.13 0.03 0.01 0.01 0.01 0.02 0.00 0.01 0.01 0.00 0.01 0.01 0.01 0.02 0.00 0.01 0.01 0.01 0.00 0.00 0.00 0.00 0.00
0.00 0.00 0.00 0.00 0.00 0.00 0.00 0.00 0.00 0.00 0.00 0.00 0.00 0.00 0.02 0.00 0.02 0.04 0.06 0.02 0.06 0.01 0.02 0.01 0.01 0.02 0.04 0.02 0.03 0.07 0.04 0.04 0.03 0.03 0.03 0.03 0.07 0.10 0.03 0.06 0.12 0.06 0.10 0.09 0.07 0.06 0.04 0.06 0.05 0.03 0.03 0.01 0.05 0.06 0.02 0.00 0.00 0.00 0.00 0.01 0.00 0.13 0.02 0.04 0.03 0.17 0.01 0.01 0.00 0.00 0.01 0.01 0.01 0.01 0.01 0.00 0.00 0.00 0.01 0.01 0.00 0.00 0.00 0.00 0.00
0.00 0.00 0.01 0.00 0.00 0.00 0.00 0.00 0.00 0.00 0.00 0.00 0.00 0.00 0.01 0.01 0.02 0.02 0.02 0.02 0.02 0.01 0.01 0.01 0.01 0.00 0.01 0.01 0.05 0.06 0.05 0.03 0.09 0.03 0.04 0.04 0.08 0.07 0.05 0.05 0.04 0.06 0.05 0.03 0.05 0.07 0.09 0.03 0.02 0.01 0.03 0.03 0.01 0.04 0.01 0.01 0.00 0.00 0.00 0.00 0.00 0.01 0.00 0.01 0.08 0.04 0.10 0.03 0.02 0.02 0.02 0.01 0.01 0.00 0.00 0.00 0.00 0.00 0.00 0.00 0.00 0.01 0.00 0.00 0.00
0.00 0.00 0.01 0.00 0.00 0.00 0.00 0.00 0.00 0.00 0.00 0.00 0.00 0.00 0.00 0.01 0.03 0.01 0.01 0.01 0.01 0.01 0.00 0.00 0.00 0.00 0.03 0.02 0.02 0.04 0.02 0.02 0.03 0.02 0.09 0.03 0.03 0.08 0.08 0.08 0.02 0.05 0.03 0.06 0.04 0.06 0.06 0.04 0.02 0.06 0.04 0.03 0.03 0.02 0.14 0.03 0.01 0.03 0.01 0.01 0.01 0.00 0.00 0.00 0.01 0.02 0.03 0.08 0.07 0.01 0.01 0.01 0.01 0.00 0.00 0.01 0.00 0.01 0.01 0.00 0.00 0.00 0.02 0.01 0.00
0.00 0.00 0.00 0.00 0.00 0.00 0.00 0.00 0.00 0.00 0.00 0.00 0.00 0.00 0.00 0.01 0.01 0.01 0.00 0.00 0.00 0.00 0.00 0.00 0.00 0.00 0.00 0.02 0.01 0.01 0.01 0.02 0.01 0.03 0.02 0.01 0.02 0.06 0.07 0.06 0.05 0.04 0.01 0.03 0.04 0.03 0.03 0.03 0.05 0.04 0.03 0.03 0.01 0.02 0.01 0.02 0.01 0.06 0.01 0.08 0.00 0.01 0.00 0.00 0.00 0.00 0.02 0.04 0.05 0.02 0.02 0.00 0.00 0.01 0.03 0.00 0.00 0.01 0.00 0.00 0.00 0.00 0.01 0.01 0.00
0.01 0.01 0.00 0.00 0.00 0.00 0.00 0.00 0.00 0.00 0.00 0.00 0.00 0.00 0.00 0.00 0.01 0.00 0.01 0.00 0.00 0.00 0.00 0.00 0.00 0.01 0.01 0.01 0.01 0.02 0.01 0.01 0.04 0.01 0.01 0.05 0.02 0.04 0.05 0.07 0.04 0.05 0.01 0.18 0.05 0.02 0.04 0.03 0.03 0.03 0.03 0.03 0.03 0.02 0.01 0.01 0.01 0.03 0.01 0.02 0.01 0.01 0.01 0.01 0.00 0.00 0.02 0.00 0.02 0.02 0.01 0.02 0.03 0.02 0.01 0.01 0.02 0.01 0.01 0.01 0.00 0.01 0.01 0.01 0.01
0.02 0.04 0.04 0.02 0.02 0.00 0.00 0.01 0.00 0.00 0.00 0.00 0.00 0.00 0.00 0.00 0.00 0.00 0.00 0.00 0.00 0.01 0.00 0.01 0.00 0.01 0.01 0.01 0.01 0.02 0.03 0.01 0.01 0.02 0.05 0.02 0.01 0.03 0.02 0.02 0.08 0.04 0.07 0.07 0.02 0.03 0.05 0.08 0.02 0.04 0.04 0.05 0.04 0.02 0.01 0.02 0.01 0.01 0.01 0.00 0.00 0.01 0.00 0.02 0.01 0.01 0.00 0.01 0.00 0.00 0.01 0.02 0.02 0.01 0.04 0.01 0.01 0.02 0.02 0.02 0.01 0.00 0.01 0.01 0.00